| time (UTC) | temp F | wind direction | speed MPH | gust MPH | rain 1hr in | rain 24hr in | rain mn in | humidity % | barometer mb |
| 20260905191221 | 66 | 77 | 5.0 | 11.0 | 0.00 | 0.01 | 0.01 | 77 | 1020.9 |
| 20260905190658 | 66 | 82 | 4.0 | 10.0 | 0.00 | 0.01 | 0.01 | 78 | 1020.9 |
| 20260905190156 | 66 | 103 | 4.0 | 9.0 | 0.00 | 0.01 | 0.01 | 78 | 1020.8 |
| 20260905185909 | 66 | 64 | 4.0 | 9.0 | 0.00 | 0.01 | 0.01 | 79 | 1020.9 |
| 20260905185409 | 65 | 92 | 4.0 | 9.0 | 0.00 | 0.01 | 0.01 | 79 | 1021.0 |
| 20260905184640 | 65 | 111 | 5.0 | 10.0 | 0.00 | 0.01 | 0.01 | 79 | 1021.0 |
| 20260905184118 | 65 | 81 | 5.0 | 10.0 | 0.00 | 0.01 | 0.01 | 80 | 1020.9 |
| 20260905183619 | 65 | 95 | 4.0 | 12.0 | 0.00 | 0.01 | 0.01 | 80 | 1020.8 |
| 20260905183051 | 65 | 59 | 5.0 | 11.0 | 0.00 | 0.01 | 0.01 | 80 | 1020.8 |
| 20260905182549 | 64 | 85 | 5.0 | 11.0 | 0.00 | 0.01 | 0.01 | 80 | 1020.8 |
| 20260905182033 | 65 | 103 | 5.0 | 11.0 | 0.00 | 0.01 | 0.01 | 80 | 1020.9 |
| 20260905181534 | 65 | 103 | 5.0 | 11.0 | 0.00 | 0.01 | 0.01 | 80 | 1020.9 |
| 20260905181034 | 65 | 127 | 6.0 | 10.0 | 0.00 | 0.01 | 0.01 | 80 | 1021.0 |
| 20260905180520 | 65 | 94 | 5.0 | 10.0 | 0.00 | 0.01 | 0.01 | 81 | 1021.0 |
| 20260905180022 | 65 | 118 | 4.0 | 10.0 | 0.00 | 0.01 | 0.01 | 82 | 1020.9 |
| 20260905175507 | 64 | 94 | 3.0 | 6.0 | 0.00 | 0.01 | 0.01 | 82 | 1020.9 |
| 20260905175004 | 64 | 110 | 3.0 | 8.0 | 0.00 | 0.01 | 0.01 | 83 | 1021.0 |
| 20260905174506 | 64 | 111 | 3.0 | 8.0 | 0.00 | 0.01 | 0.01 | 83 | 1021.2 |
| 20260905174000 | 64 | 99 | 3.0 | 7.0 | 0.00 | 0.01 | 0.01 | 83 | 1021.2 |
| 20260905173709 | 64 | 126 | 3.0 | 7.0 | 0.00 | 0.01 | 0.01 | 83 | 1021.1 |
| 20260905173210 | 64 | 109 | 3.0 | 6.0 | 0.00 | 0.01 | 0.01 | 83 | 1021.1 |
| 20260905172408 | 63 | 101 | 3.0 | 7.0 | 0.00 | 0.01 | 0.01 | 83 | 1021.2 |
| 20260905171846 | 63 | 72 | 4.0 | 10.0 | 0.00 | 0.01 | 0.01 | 83 | 1021.2 |
| 20260905171317 | 63 | 94 | 4.0 | 10.0 | 0.00 | 0.01 | 0.01 | 83 | 1021.2 |
| 20260905170753 | 63 | 74 | 3.0 | 9.0 | 0.00 | 0.01 | 0.01 | 83 | 1021.2 |
| 20260905170231 | 63 | 92 | 3.0 | 9.0 | 0.00 | 0.01 | 0.01 | 84 | 1021.2 |
| 20260905165722 | 63 | 104 | 4.0 | 9.0 | 0.00 | 0.01 | 0.01 | 84 | 1021.2 |
| 20260905165219 | 63 | 90 | 5.0 | 9.0 | 0.00 | 0.01 | 0.01 | 84 | 1021.4 |
| 20260905164657 | 63 | 117 | 5.0 | 9.0 | 0.00 | 0.01 | 0.01 | 84 | 1021.3 |
| 20260905164129 | 63 | 117 | 5.0 | 9.0 | 0.00 | 0.01 | 0.01 | 84 | 1021.3 |
| 20260905163626 | 63 | 78 | 5.0 | 9.0 | 0.00 | 0.01 | 0.01 | 84 | 1021.4 |
| 20260905163102 | 63 | 89 | 4.0 | 9.0 | 0.00 | 0.01 | 0.01 | 84 | 1021.4 |
| 20260905162535 | 63 | 101 | 4.0 | 10.0 | 0.00 | 0.01 | 0.01 | 84 | 1021.4 |
| 20260905162008 | 62 | 78 | 4.0 | 10.0 | 0.00 | 0.01 | 0.01 | 84 | 1021.4 |
| 20260905161441 | 62 | 76 | 5.0 | 10.0 | 0.00 | 0.01 | 0.01 | 84 | 1021.5 |
| 20260905161210 | 63 | 98 | 4.0 | 10.0 | 0.00 | 0.01 | 0.01 | 84 | 1021.4 |
| 20260905160411 | 63 | 59 | 4.0 | 8.0 | 0.00 | 0.01 | 0.01 | 84 | 1021.4 |
| 20260905160118 | 62 | 108 | 4.0 | 8.0 | 0.00 | 0.01 | 0.01 | 84 | 1021.4 |
| 20260905155758 | 62 | 88 | 3.0 | 7.0 | 0.00 | 0.01 | 0.01 | 84 | 1021.3 |
| 20260905155402 | 62 | 109 | 3.0 | 7.0 | 0.00 | 0.01 | 0.01 | 84 | 1021.4 |
| 20260905154228 | 63 | 104 | 3.0 | 6.0 | 0.00 | 0.01 | 0.01 | 84 | 1021.3 |
| 20260905153701 | 63 | 93 | 3.0 | 7.0 | 0.00 | 0.01 | 0.01 | 84 | 1021.3 |
| 20260905153159 | 63 | 89 | 3.0 | 6.0 | 0.00 | 0.01 | 0.01 | 84 | 1021.2 |
| 20260905152654 | 63 | 98 | 3.0 | 6.0 | 0.00 | 0.02 | 0.01 | 84 | 1021.1 |
| 20260905152127 | 63 | 99 | 2.0 | 7.0 | 0.00 | 0.02 | 0.01 | 84 | 1021.1 |
| 20260905151602 | 63 | 126 | 2.0 | 6.0 | 0.00 | 0.02 | 0.01 | 84 | 1021.0 |
| 20260905151041 | 63 | 101 | 3.0 | 8.0 | 0.00 | 0.02 | 0.01 | 84 | 1021.0 |
| 20260905150540 | 63 | 101 | 3.0 | 8.0 | 0.00 | 0.02 | 0.01 | 84 | 1020.8 |
| 20260905150029 | 63 | 87 | 2.0 | 6.0 | 0.00 | 0.02 | 0.01 | 84 | 1020.8 |
| 20260905145504 | 63 | 90 | 2.0 | 7.0 | 0.00 | 0.02 | 0.01 | 84 | 1020.7 |
| 20260905145210 | 63 | 92 | 3.0 | 8.0 | 0.00 | 0.02 | 0.01 | 84 | 1020.6 |
| 20260905144410 | 63 | 91 | 3.0 | 10.0 | 0.00 | 0.02 | 0.01 | 84 | 1020.5 |
| 20260905143912 | 63 | 93 | 2.0 | 8.0 | 0.00 | 0.02 | 0.01 | 84 | 1020.6 |
| 20260905143401 | 63 | 92 | 3.0 | 10.0 | 0.00 | 0.02 | 0.01 | 84 | 1020.5 |
| 20260905142859 | 63 | 74 | 4.0 | 10.0 | 0.00 | 0.02 | 0.01 | 84 | 1020.4 |
| 20260905142330 | 63 | 49 | 3.0 | 9.0 | 0.01 | 0.02 | 0.01 | 84 | 1020.3 |
| 20260905141828 | 63 | 65 | 3.0 | 9.0 | 0.01 | 0.02 | 0.01 | 84 | 1020.4 |
| 20260905141534 | 63 | 60 | 2.0 | 9.0 | 0.01 | 0.03 | 0.01 | 84 | 1020.3 |
| 20260905140734 | 62 | 107 | 2.0 | 7.0 | 0.01 | 0.03 | 0.01 | 84 | 1020.3 |
| 20260905140230 | 62 | 113 | 3.0 | 8.0 | 0.01 | 0.03 | 0.01 | 84 | 1020.2 |
| 20260905135728 | 62 | 75 | 3.0 | 8.0 | 0.01 | 0.03 | 0.01 | 84 | 1020.2 |
| 20260905135201 | 62 | 67 | 2.0 | 7.0 | 0.01 | 0.03 | 0.01 | 84 | 1020.3 |
| 20260905134658 | 62 | 71 | 2.0 | 5.0 | 0.01 | 0.03 | 0.01 | 84 | 1020.4 |
| 20260905134154 | 62 | 56 | 2.0 | 7.0 | 0.01 | 0.03 | 0.01 | 84 | 1020.3 |
| 20260905133652 | 62 | 46 | 2.0 | 7.0 | 0.01 | 0.03 | 0.01 | 84 | 1020.2 |
| 20260905133356 | 62 | 68 | 2.0 | 8.0 | 0.01 | 0.03 | 0.01 | 84 | 1020.0 |
| 20260905132622 | 62 | 71 | 2.0 | 8.0 | 0.01 | 0.03 | 0.01 | 84 | 1020.2 |
| 20260905132114 | 62 | 59 | 3.0 | 6.0 | 0.00 | 0.02 | 0.00 | 84 | 1020.3 |
| 20260905131612 | 62 | 55 | 2.0 | 5.0 | 0.00 | 0.02 | 0.00 | 84 | 1020.3 |
| 20260905131045 | 62 | 17 | 2.0 | 4.0 | 0.00 | 0.02 | 0.00 | 84 | 1020.5 |
| 20260905130815 | 62 | 80 | 1.0 | 4.0 | 0.00 | 0.02 | 0.00 | 84 | 1020.6 |
| 20260905130300 | 62 | 109 | 1.0 | 4.0 | 0.00 | 0.02 | 0.00 | 84 | 1020.6 |
| 20260905125757 | 62 | 109 | 2.0 | 4.0 | 0.00 | 0.02 | 0.00 | 84 | 1020.5 |
| 20260905125030 | 61 | 75 | 2.0 | 4.0 | 0.00 | 0.02 | 0.00 | 84 | 1020.3 |
| 20260905124510 | 62 | 102 | 1.0 | 6.0 | 0.00 | 0.02 | 0.00 | 84 | 1020.2 |
| 20260905123934 | 62 | 86 | 1.0 | 3.0 | 0.00 | 0.02 | 0.00 | 84 | 1020.2 |
| 20260905123702 | 62 | 87 | 1.0 | 3.0 | 0.00 | 0.02 | 0.00 | 84 | 1020.1 |
| 20260905123547 | 62 | 88 | 1.0 | 3.0 | 0.00 | 0.02 | 0.00 | 83 | 1020.3 |
| 20260905122653 | 62 | 63 | 0.0 | 3.0 | 0.00 | 0.02 | 0.00 | 83 | 1020.2 |
| 20260905121919 | 62 | 63 | 0.0 | 3.0 | 0.00 | 0.02 | 0.00 | 83 | 1020.0 |
| 20260905121352 | 62 | 49 | 1.0 | 2.0 | 0.00 | 0.02 | 0.00 | 83 | 1019.7 |
| 20260905120849 | 62 | 49 | 1.0 | 2.0 | 0.00 | 0.02 | 0.00 | 83 | 1019.6 |
| 20260905120327 | 62 | 46 | 1.0 | 4.0 | 0.00 | 0.02 | 0.00 | 83 | 1019.5 |
| 20260905120323 | 61 | 47 | 0.0 | 3.0 | 0.00 | 0.02 | 0.00 | 83 | 1019.7 |
| 20260905115525 | 61 | 46 | 1.0 | 5.0 | 0.00 | 0.02 | 0.00 | 83 | 1019.2 |
| 20260905114753 | 61 | 42 | 2.0 | 6.0 | 0.00 | 0.02 | 0.00 | 83 | 1019.2 |
| 20260905114516 | 62 | 70 | 2.0 | 6.0 | 0.00 | 0.02 | 0.00 | 83 | 1019.0 |
| 20260905113743 | 62 | 67 | 1.0 | 5.0 | 0.00 | 0.02 | 0.00 | 83 | 1019.0 |
| 20260905113245 | 61 | 77 | 1.0 | 5.0 | 0.00 | 0.02 | 0.00 | 83 | 1019.0 |
| 20260905112710 | 62 | 65 | 2.0 | 6.0 | 0.00 | 0.02 | 0.00 | 83 | 1018.9 |
| 20260905112143 | 62 | 84 | 2.0 | 6.0 | 0.00 | 0.02 | 0.00 | 83 | 1018.7 |
| 20260905111640 | 62 | 91 | 1.0 | 5.0 | 0.00 | 0.02 | 0.00 | 83 | 1018.7 |
| 20260905111112 | 62 | 49 | 1.0 | 5.0 | 0.00 | 0.02 | 0.00 | 83 | 1018.7 |
| 20260905110610 | 62 | 74 | 2.0 | 5.0 | 0.00 | 0.02 | 0.00 | 83 | 1018.7 |
| 20260905110042 | 62 | 44 | 2.0 | 5.0 | 0.00 | 0.02 | 0.00 | 83 | 1018.8 |
| 20260905105540 | 61 | 37 | 2.0 | 5.0 | 0.00 | 0.02 | 0.00 | 83 | 1018.8 |
| 20260905105017 | 62 | 53 | 2.0 | 5.0 | 0.00 | 0.02 | 0.00 | 83 | 1018.8 |
| 20260905104517 | 61 | 43 | 1.0 | 5.0 | 0.00 | 0.02 | 0.00 | 83 | 1018.8 |
| 20260905103953 | 62 | 41 | 1.0 | 5.0 | 0.00 | 0.02 | 0.00 | 83 | 1018.9 |
| 20260905103452 | 62 | 30 | 1.0 | 5.0 | 0.00 | 0.02 | 0.00 | 83 | 1018.9 |
| 20260905102923 | 62 | 39 | 1.0 | 4.0 | 0.00 | 0.02 | 0.00 | 83 | 1018.9 |
| 20260905102420 | 62 | 44 | 2.0 | 7.0 | 0.00 | 0.02 | 0.00 | 83 | 1018.9 |
| 20260905101922 | 62 | 67 | 2.0 | 7.0 | 0.00 | 0.02 | 0.00 | 83 | 1019.1 |
| 20260905101357 | 62 | 65 | 2.0 | 5.0 | 0.00 | 0.02 | 0.00 | 83 | 1019.0 |
| 20260905100836 | 62 | 46 | 2.0 | 5.0 | 0.00 | 0.02 | 0.00 | 83 | 1019.0 |
| 20260905100339 | 62 | 58 | 1.0 | 5.0 | 0.00 | 0.02 | 0.00 | 83 | 1019.1 |
| 20260905095808 | 62 | 53 | 1.0 | 6.0 | 0.00 | 0.02 | 0.00 | 83 | 1019.0 |
| 20260905095306 | 62 | 44 | 2.0 | 5.0 | 0.00 | 0.02 | 0.00 | 83 | 1019.1 |
| 20260905095022 | 62 | 62 | 2.0 | 6.0 | 0.00 | 0.02 | 0.00 | 83 | 1018.9 |
| 20260905094251 | 62 | 32 | 2.0 | 6.0 | 0.00 | 0.02 | 0.00 | 83 | 1019.1 |
| 20260905093730 | 62 | 71 | 2.0 | 7.0 | 0.00 | 0.02 | 0.00 | 83 | 1019.1 |
| 20260905093216 | 62 | 71 | 3.0 | 9.0 | 0.00 | 0.02 | 0.00 | 83 | 1019.1 |
| 20260905092705 | 62 | 63 | 3.0 | 9.0 | 0.00 | 0.02 | 0.00 | 83 | 1019.1 |
| 20260905092204 | 62 | 80 | 2.0 | 7.0 | 0.00 | 0.02 | 0.00 | 83 | 1019.1 |
| 20260905091704 | 62 | 78 | 1.0 | 6.0 | 0.00 | 0.02 | 0.00 | 83 | 1019.1 |
| 20260905091413 | 62 | 84 | 2.0 | 7.0 | 0.00 | 0.02 | 0.00 | 83 | 1019.1 |
| 20260905090619 | 62 | 60 | 3.0 | 7.0 | 0.00 | 0.02 | 0.00 | 83 | 1019.2 |
| 20260905090105 | 62 | 60 | 3.0 | 5.0 | 0.00 | 0.02 | 0.00 | 83 | 1019.1 |
| 20260905090100 | 62 | 63 | 3.0 | 7.0 | 0.00 | 0.02 | 0.00 | 83 | 1019.2 |
| 20260905085048 | 62 | 84 | 2.0 | 7.0 | 0.00 | 0.02 | 0.00 | 84 | 1019.2 |
| 20260905084551 | 62 | 84 | 2.0 | 7.0 | 0.00 | 0.02 | 0.00 | 84 | 1019.1 |
| 20260905084036 | 62 | 38 | 3.0 | 6.0 | 0.00 | 0.02 | 0.00 | 84 | 1019.2 |
| 20260905083538 | 62 | 65 | 2.0 | 7.0 | 0.00 | 0.02 | 0.00 | 84 | 1019.1 |
| 20260905083034 | 62 | 90 | 2.0 | 7.0 | 0.00 | 0.02 | 0.00 | 84 | 1019.2 |
| 20260905082536 | 62 | 50 | 2.0 | 6.0 | 0.00 | 0.02 | 0.00 | 84 | 1019.2 |
| 20260905082243 | 62 | 40 | 3.0 | 6.0 | 0.00 | 0.02 | 0.00 | 84 | 1019.2 |
| 20260905081511 | 62 | 67 | 3.0 | 10.0 | 0.00 | 0.02 | 0.00 | 84 | 1019.1 |
| 20260905081013 | 62 | 51 | 3.0 | 10.0 | 0.00 | 0.02 | 0.00 | 84 | 1019.2 |
| 20260905080722 | 62 | 28 | 3.0 | 10.0 | 0.00 | 0.02 | 0.00 | 84 | 1019.3 |
| 20260905075925 | 62 | 85 | 4.0 | 10.0 | 0.00 | 0.02 | 0.00 | 84 | 1019.2 |
| 20260905075629 | 62 | 130 | 4.0 | 10.0 | 0.00 | 0.03 | 0.00 | 84 | 1019.2 |
| 20260905074837 | 62 | 67 | 4.0 | 10.0 | 0.00 | 0.04 | 0.00 | 84 | 1019.2 |
| 20260905074312 | 62 | 88 | 3.0 | 9.0 | 0.00 | 0.05 | 0.00 | 84 | 1019.2 |
| 20260905073745 | 62 | 46 | 3.0 | 8.0 | 0.00 | 0.06 | 0.00 | 84 | 1019.1 |
| 20260905073218 | 62 | 56 | 3.0 | 8.0 | 0.00 | 0.22 | 0.00 | 84 | 1019.1 |
| 20260905072653 | 62 | 29 | 4.0 | 10.0 | 0.00 | 0.31 | 0.00 | 84 | 1019.1 |
| 20260905072125 | 62 | 54 | 4.0 | 10.0 | 0.00 | 0.37 | 0.00 | 84 | 1019.1 |
| 20260905071623 | 62 | 28 | 3.0 | 10.0 | 0.00 | 0.37 | 0.00 | 84 | 1019.1 |
| 20260905071119 | 62 | 36 | 3.0 | 10.0 | 0.00 | 0.38 | 0.00 | 84 | 1019.1 |
| 20260905070616 | 62 | 68 | 3.0 | 7.0 | 0.00 | 0.40 | 0.00 | 84 | 1019.1 |
| 20260905070324 | 62 | 55 | 2.0 | 6.0 | 0.00 | 0.44 | 0.00 | 84 | 1019.0 |
| 20260905065523 | 62 | 31 | 2.0 | 4.0 | 0.00 | 0.44 | 0.00 | 84 | 1019.0 |
| 20260905065020 | 62 | 76 | 2.0 | 6.0 | 0.00 | 0.45 | 0.00 | 84 | 1019.0 |
| 20260905064455 | 62 | 92 | 2.0 | 6.0 | 0.00 | 0.45 | 0.00 | 84 | 1019.0 |
| 20260905063929 | 62 | 86 | 3.0 | 6.0 | 0.00 | 0.45 | 0.00 | 84 | 1018.9 |
| 20260905063402 | 62 | 49 | 2.0 | 6.0 | 0.00 | 0.45 | 0.00 | 84 | 1019.0 |
| 20260905062837 | 62 | 71 | 1.0 | 5.0 | 0.00 | 0.45 | 0.00 | 84 | 1019.0 |
| 20260905062309 | 62 | 61 | 1.0 | 5.0 | 0.00 | 0.45 | 0.00 | 84 | 1019.0 |
| 20260905061806 | 62 | 78 | 1.0 | 5.0 | 0.00 | 0.45 | 0.00 | 84 | 1018.9 |
| 20260905061240 | 62 | 98 | 1.0 | 5.0 | 0.00 | 0.45 | 0.00 | 84 | 1018.9 |
| 20260905060944 | 62 | 101 | 1.0 | 5.0 | 0.00 | 0.45 | 0.00 | 84 | 1019.0 |
| 20260905060442 | 62 | 69 | 0.0 | 3.0 | 0.00 | 0.45 | 0.00 | 84 | 1019.0 |
| 20260905055643 | 62 | 69 | 2.0 | 7.0 | 0.00 | 0.45 | 0.00 | 84 | 1019.0 |
| 20260905055140 | 62 | 68 | 2.0 | 7.0 | 0.00 | 0.45 | 0.00 | 84 | 1019.0 |
| 20260905054635 | 62 | 67 | 1.0 | 3.0 | 0.00 | 0.45 | 0.00 | 84 | 1019.1 |
| 20260905054340 | 62 | 68 | 2.0 | 6.0 | 0.00 | 0.45 | 0.00 | 84 | 1019.1 |
| 20260905053542 | 62 | 71 | 2.0 | 6.0 | 0.00 | 0.45 | 0.00 | 84 | 1019.1 |
| 20260905053311 | 62 | 73 | 2.0 | 4.0 | 0.00 | 0.45 | 0.00 | 84 | 1019.1 |
| 20260905052511 | 62 | 77 | 2.0 | 5.0 | 0.00 | 0.45 | 0.00 | 84 | 1019.0 |
| 20260905052240 | 62 | 61 | 2.0 | 5.0 | 0.00 | 0.45 | 0.00 | 84 | 1019.1 |
| 20260905051443 | 62 | 67 | 2.0 | 5.0 | 0.00 | 0.45 | 0.00 | 84 | 1019.0 |
| 20260905050937 | 62 | 69 | 1.0 | 5.0 | 0.00 | 0.45 | 0.00 | 84 | 1019.0 |
| 20260905050434 | 62 | 80 | 1.0 | 3.0 | 0.00 | 0.45 | 0.00 | 84 | 1019.0 |
| 20260905045921 | 62 | 80 | 2.0 | 6.0 | 0.00 | 0.45 | 0.45 | 84 | 1019.0 |
| 20260905045415 | 62 | 80 | 1.0 | 6.0 | 0.00 | 0.45 | 0.45 | 84 | 1019.0 |
| 20260905044847 | 62 | 74 | 1.0 | 4.0 | 0.00 | 0.45 | 0.45 | 84 | 1018.9 |
| 20260905044344 | 62 | 74 | 1.0 | 4.0 | 0.00 | 0.45 | 0.45 | 84 | 1019.0 |
| 20260905043819 | 62 | 94 | 1.0 | 4.0 | 0.00 | 0.45 | 0.45 | 84 | 1018.9 |
| 20260905043252 | 62 | 94 | 1.0 | 4.0 | 0.00 | 0.45 | 0.45 | 84 | 1018.8 |
| 20260905042749 | 62 | 96 | 2.0 | 4.0 | 0.00 | 0.45 | 0.45 | 84 | 1018.9 |
| 20260905042223 | 62 | 105 | 2.0 | 4.0 | 0.00 | 0.45 | 0.45 | 84 | 1018.7 |
| 20260905042200 | 62 | 71 | 3.0 | 5.0 | 0.00 | 0.45 | 0.45 | 84 | 1019.0 |
| 20260905041129 | 62 | 71 | 3.0 | 6.0 | 0.00 | 0.45 | 0.45 | 84 | 1019.0 |
| 20260905040628 | 62 | 54 | 2.0 | 5.0 | 0.00 | 0.45 | 0.45 | 84 | 1019.1 |
| 20260905040059 | 62 | 76 | 2.0 | 4.0 | 0.00 | 0.45 | 0.45 | 84 | 1019.1 |
| 20260905035558 | 62 | 75 | 2.0 | 4.0 | 0.00 | 0.45 | 0.45 | 84 | 1019.2 |
| 20260905035030 | 62 | 76 | 2.0 | 5.0 | 0.00 | 0.45 | 0.45 | 84 | 1019.2 |
| 20260905034528 | 63 | 67 | 2.0 | 5.0 | 0.00 | 0.45 | 0.45 | 84 | 1019.1 |
| 20260905033959 | 63 | 73 | 1.0 | 4.0 | 0.00 | 0.45 | 0.45 | 84 | 1019.2 |
| 20260905033458 | 63 | 62 | 0.0 | 4.0 | 0.00 | 0.45 | 0.45 | 84 | 1019.1 |
| 20260905033204 | 63 | 62 | 0.0 | 4.0 | 0.00 | 0.46 | 0.45 | 84 | 1019.3 |
| 20260905032432 | 63 | 52 | 1.0 | 2.0 | 0.00 | 0.47 | 0.45 | 84 | 1019.3 |
| 20260905031921 | 63 | 51 | 1.0 | 4.0 | 0.00 | 0.47 | 0.45 | 83 | 1019.2 |
| 20260905031356 | 63 | 50 | 2.0 | 6.0 | 0.00 | 0.47 | 0.45 | 83 | 1019.3 |
| 20260905030828 | 63 | 48 | 1.0 | 6.0 | 0.00 | 0.47 | 0.45 | 83 | 1019.2 |
| 20260905030325 | 63 | 42 | 2.0 | 4.0 | 0.00 | 0.47 | 0.45 | 83 | 1019.2 |
| 20260905025800 | 63 | 43 | 2.0 | 4.0 | 0.00 | 0.47 | 0.45 | 83 | 1019.2 |
| 20260905025501 | 63 | 46 | 2.0 | 6.0 | 0.00 | 0.48 | 0.45 | 83 | 1019.2 |
| 20260905024729 | 63 | 55 | 2.0 | 6.0 | 0.00 | 0.49 | 0.45 | 83 | 1019.2 |
| 20260905024201 | 63 | 30 | 1.0 | 6.0 | 0.00 | 0.52 | 0.45 | 83 | 1019.2 |
| 20260905023656 | 63 | 90 | 2.0 | 6.0 | 0.00 | 0.60 | 0.45 | 83 | 1019.1 |
| 20260905023153 | 63 | 90 | 3.0 | 8.0 | 0.00 | 0.72 | 0.45 | 83 | 1019.1 |
| 20260905022647 | 63 | 77 | 2.0 | 8.0 | 0.00 | 0.80 | 0.45 | 83 | 1019.1 |
| 20260905022134 | 63 | 27 | 2.0 | 6.0 | 0.00 | 0.90 | 0.45 | 83 | 1019.0 |
| 20260905021636 | 63 | 57 | 2.0 | 6.0 | 0.00 | 0.93 | 0.45 | 83 | 1019.0 |
| 20260905021130 | 63 | 39 | 2.0 | 8.0 | 0.00 | 0.97 | 0.45 | 83 | 1018.9 |
| 20260905020627 | 63 | 84 | 2.0 | 8.0 | 0.00 | 0.99 | 0.45 | 83 | 1018.9 |
| 20260905020059 | 63 | 66 | 3.0 | 8.0 | 0.00 | 1.03 | 0.45 | 83 | 1018.9 |
| 20260905015559 | 63 | 63 | 3.0 | 5.0 | 0.00 | 1.07 | 0.45 | 83 | 1018.8 |
| 20260905015555 | 63 | 61 | 3.0 | 8.0 | 0.00 | 1.07 | 0.45 | 83 | 1018.9 |
| 20260905014547 | 63 | 85 | 3.0 | 11.0 | 0.00 | 1.07 | 0.45 | 83 | 1018.8 |
| 20260905014048 | 63 | 74 | 2.0 | 5.0 | 0.00 | 1.07 | 0.45 | 83 | 1018.6 |
| 20260905014044 | 63 | 59 | 2.0 | 11.0 | 0.00 | 1.07 | 0.45 | 83 | 1018.8 |
| 20260905013039 | 63 | 61 | 2.0 | 5.0 | 0.00 | 1.07 | 0.45 | 83 | 1018.5 |
| 20260905012513 | 63 | 40 | 2.0 | 5.0 | 0.00 | 1.07 | 0.45 | 83 | 1018.5 |
| 20260905011946 | 63 | 44 | 2.0 | 5.0 | 0.00 | 1.07 | 0.45 | 83 | 1018.5 |
| 20260905011443 | 63 | 67 | 3.0 | 8.0 | 0.00 | 1.07 | 0.45 | 83 | 1018.4 |
| 20260905011145 | 63 | 64 | 3.0 | 8.0 | 0.00 | 1.07 | 0.45 | 83 | 1018.3 |
| 20260905010411 | 63 | 63 | 4.0 | 10.0 | 0.00 | 1.07 | 0.45 | 83 | 1018.3 |
| 20260905010114 | 63 | 74 | 4.0 | 10.0 | 0.00 | 1.07 | 0.45 | 83 | 1018.2 |
| 20260905005318 | 63 | 42 | 3.0 | 10.0 | 0.00 | 1.07 | 0.45 | 83 | 1018.2 |
| 20260905004754 | 63 | 53 | 4.0 | 10.0 | 0.00 | 1.07 | 0.45 | 83 | 1018.1 |
| 20260905004226 | 63 | 82 | 2.0 | 10.0 | 0.00 | 1.07 | 0.45 | 83 | 1018.2 |
| 20260905003723 | 63 | 65 | 1.0 | 4.0 | 0.00 | 1.07 | 0.45 | 83 | 1018.2 |
| 20260905003428 | 63 | 91 | 2.0 | 6.0 | 0.00 | 1.07 | 0.45 | 83 | 1018.1 |
| 20260905002635 | 63 | 94 | 3.0 | 6.0 | 0.00 | 1.07 | 0.45 | 82 | 1018.1 |
| 20260905002129 | 63 | 90 | 3.0 | 6.0 | 0.00 | 1.07 | 0.45 | 82 | 1018.1 |
| 20260905001630 | 63 | 86 | 2.0 | 6.0 | 0.00 | 1.07 | 0.45 | 82 | 1018.1 |
| 20260905001103 | 64 | 110 | 2.0 | 6.0 | 0.00 | 1.07 | 0.45 | 82 | 1018.2 |
| 20260905000605 | 64 | 105 | 3.0 | 8.0 | 0.00 | 1.07 | 0.45 | 82 | 1018.1 |
| 20260905000310 | 64 | 65 | 4.0 | 9.0 | 0.00 | 1.07 | 0.45 | 82 | 1018.1 |
| 20260904235511 | 64 | 77 | 3.0 | 9.0 | 0.00 | 1.07 | 0.45 | 82 | 1018.0 |
| 20260904235009 | 64 | 61 | 3.0 | 11.0 | 0.00 | 1.07 | 0.45 | 81 | 1018.1 |
| 20260904234448 | 64 | 97 | 4.0 | 9.0 | 0.00 | 1.07 | 0.45 | 81 | 1018.1 |
| 20260904233946 | 64 | 50 | 4.0 | 11.0 | 0.00 | 1.07 | 0.45 | 81 | 1018.0 |
| 20260904233421 | 64 | 75 | 3.0 | 9.0 | 0.00 | 1.07 | 0.45 | 82 | 1017.9 |
| 20260904232911 | 64 | 77 | 3.0 | 9.0 | 0.00 | 1.07 | 0.45 | 82 | 1017.9 |
| 20260904232359 | 64 | 91 | 3.0 | 10.0 | 0.00 | 1.07 | 0.45 | 82 | 1017.9 |
| 20260904232133 | 64 | 71 | 3.0 | 10.0 | 0.00 | 1.07 | 0.45 | 82 | 1017.8 |
| 20260904231337 | 64 | 65 | 3.0 | 7.0 | 0.00 | 1.07 | 0.45 | 82 | 1017.8 |
| 20260904230834 | 64 | 102 | 4.0 | 10.0 | 0.00 | 1.07 | 0.45 | 82 | 1017.8 |
| 20260904230331 | 64 | 61 | 4.0 | 10.0 | 0.00 | 1.07 | 0.45 | 82 | 1017.9 |
| 20260904225827 | 64 | 58 | 2.0 | 6.0 | 0.00 | 1.07 | 0.45 | 83 | 1017.8 |
| 20260904225327 | 64 | 88 | 2.0 | 7.0 | 0.00 | 1.07 | 0.45 | 83 | 1017.9 |
| 20260904224827 | 64 | 104 | 2.0 | 7.0 | 0.00 | 1.07 | 0.45 | 83 | 1017.9 |
| 20260904224327 | 63 | 71 | 3.0 | 6.0 | 0.00 | 1.07 | 0.45 | 83 | 1017.8 |
| 20260904223819 | 63 | 103 | 2.0 | 6.0 | 0.00 | 1.07 | 0.45 | 83 | 1017.8 |
| 20260904223546 | 63 | 93 | 3.0 | 7.0 | 0.00 | 1.07 | 0.45 | 83 | 1017.9 |
| 20260904222814 | 63 | 98 | 3.0 | 7.0 | 0.00 | 1.07 | 0.45 | 83 | 1017.9 |
| 20260904222313 | 63 | 74 | 3.0 | 7.0 | 0.00 | 1.07 | 0.45 | 83 | 1017.9 |
| 20260904221749 | 63 | 10 | 4.0 | 8.0 | 0.00 | 1.07 | 0.45 | 83 | 1017.9 |
| 20260904221251 | 63 | 78 | 4.0 | 14.0 | 0.00 | 1.07 | 0.45 | 83 | 1017.9 |
| 20260904220727 | 63 | 69 | 6.0 | 14.0 | 0.00 | 1.07 | 0.45 | 83 | 1017.8 |
| 20260904220208 | 63 | 73 | 7.0 | 15.0 | 0.00 | 1.07 | 0.45 | 83 | 1017.8 |
| 20260904215710 | 62 | 78 | 6.0 | 15.0 | 0.00 | 1.07 | 0.45 | 83 | 1017.8 |
| 20260904215137 | 62 | 140 | 8.0 | 16.0 | 0.00 | 1.07 | 0.45 | 83 | 1017.8 |
| 20260904214613 | 62 | 85 | 9.0 | 16.0 | 0.00 | 1.07 | 0.45 | 83 | 1017.7 |
| 20260904214056 | 62 | 101 | 7.0 | 16.0 | 0.00 | 1.07 | 0.45 | 83 | 1017.6 |
| 20260904213555 | 62 | 82 | 8.0 | 16.0 | 0.00 | 1.07 | 0.45 | 83 | 1017.5 |
| 20260904213040 | 62 | 113 | 8.0 | 16.0 | 0.00 | 1.07 | 0.45 | 83 | 1017.6 |
| 20260904212516 | 62 | 102 | 8.0 | 15.0 | 0.00 | 1.07 | 0.45 | 83 | 1017.5 |
| 20260904211956 | 62 | 67 | 7.0 | 14.0 | 0.00 | 1.07 | 0.45 | 83 | 1017.5 |
| 20260904211644 | 62 | 96 | 6.0 | 13.0 | 0.00 | 1.07 | 0.45 | 83 | 1017.5 |
| 20260904211519 | 62 | 70 | 5.0 | 13.0 | 0.00 | 1.07 | 0.45 | 83 | 1017.5 |
| 20260904210637 | 62 | 74 | 6.0 | 13.0 | 0.00 | 1.07 | 0.45 | 83 | 1017.4 |
| 20260904205840 | 62 | 74 | 8.0 | 15.0 | 0.00 | 1.07 | 0.45 | 83 | 1017.6 |
| 20260904205315 | 62 | 61 | 7.0 | 16.0 | 0.00 | 1.07 | 0.45 | 83 | 1017.6 |
| 20260904205025 | 62 | 67 | 7.0 | 16.0 | 0.00 | 1.07 | 0.45 | 83 | 1017.5 |
| 20260904204226 | 62 | 85 | 7.0 | 12.0 | 0.00 | 1.07 | 0.45 | 83 | 1017.6 |
| 20260904203723 | 63 | 11 | 6.0 | 14.0 | 0.00 | 1.07 | 0.45 | 83 | 1017.6 |
| 20260904203220 | 63 | 61 | 5.0 | 13.0 | 0.00 | 1.07 | 0.45 | 83 | 1017.5 |
| 20260904202719 | 62 | 96 | 6.0 | 15.0 | 0.00 | 1.07 | 0.45 | 83 | 1017.6 |
| 20260904202215 | 62 | 51 | 7.0 | 15.0 | 0.00 | 1.07 | 0.45 | 83 | 1017.5 |
| 20260904201650 | 62 | 61 | 6.0 | 13.0 | 0.00 | 1.07 | 0.45 | 83 | 1017.4 |
| 20260904201124 | 62 | 79 | 6.0 | 13.0 | 0.00 | 1.07 | 0.45 | 83 | 1017.4 |
| 20260904200558 | 62 | 69 | 7.0 | 13.0 | 0.00 | 1.07 | 0.45 | 83 | 1017.3 |
| 20260904200031 | 63 | 81 | 5.0 | 12.0 | 0.00 | 1.07 | 0.45 | 83 | 1017.2 |
| 20260904195528 | 63 | 52 | 5.0 | 12.0 | 0.00 | 1.07 | 0.45 | 83 | 1017.2 |
| 20260904195018 | 63 | 94 | 5.0 | 12.0 | 0.00 | 1.07 | 0.45 | 83 | 1017.2 |
| 20260904194449 | 63 | 80 | 4.0 | 11.0 | 0.00 | 1.07 | 0.45 | 83 | 1017.2 |
| 20260904193922 | 62 | 96 | 5.0 | 11.0 | 0.00 | 1.07 | 0.45 | 83 | 1017.0 |
| 20260904193358 | 62 | 58 | 5.0 | 13.0 | 0.00 | 1.07 | 0.45 | 83 | 1017.0 |
| 20260904192855 | 63 | 59 | 5.0 | 13.0 | 0.00 | 1.07 | 0.45 | 83 | 1017.0 |
| 20260904192351 | 63 | 88 | 3.0 | 10.0 | 0.00 | 1.07 | 0.45 | 83 | 1016.9 |
| 20260904191830 | 63 | 81 | 2.0 | 9.0 | 0.00 | 1.07 | 0.45 | 83 | 1016.9 |
| 20260904191557 | 63 | 74 | 3.0 | 8.0 | 0.00 | 1.07 | 0.45 | 83 | 1016.7 |